time, Switch, Flow(0), Analog(2)
yyyy/mm/dd HH:MM:SS.fff, True=FILTERED|False=TOTAL, L/min, V
2023/07/02 04:00:01.341, True, 4.309, 0.131075
2023/07/02 04:00:01.846, True, 4.311, 0.134585
2023/07/02 04:00:02.341, True, 4.385, 0.133211
2023/07/02 04:00:02.845, True, 4.640, 0.131151
2023/07/02 04:00:03.350, True, 4.307, 0.136110
2023/07/02 04:00:03.845, True, 3.705, 0.133211
2023/07/02 04:00:04.349, True, 2.653, 0.131609
2023/07/02 04:00:04.854, True, 1.660, 0.132677
2023/07/02 04:00:05.350, True, 1.010, 0.132982
2023/07/02 04:00:05.854, True, 0.996, 0.131228
2023/07/02 04:00:06.357, True, 0.993, 0.133745
2023/07/02 04:00:06.853, True, 1.012, 0.133288
2023/07/02 04:00:07.358, True, 1.325, 0.132677
2023/07/02 04:00:07.861, True, 0.995, 0.134508
2023/07/02 04:00:08.365, True, 0.996, 0.132143
2023/07/02 04:00:08.862, True, 1.010, 0.131762
2023/07/02 04:00:09.366, True, 0.995, 0.133059
2023/07/02 04:00:09.862, True, 1.012, 0.131533
2023/07/02 04:00:10.366, True, 1.326, 0.132830
2023/07/02 04:00:10.869, True, 0.995, 0.131914
2023/07/02 04:00:11.366, True, 1.011, 0.130541
2023/07/02 04:00:11.870, True, 0.995, 0.131609
2023/07/02 04:00:12.374, True, 0.994, 0.132753
2023/07/02 04:00:12.870, True, 1.012, 0.132143
2023/07/02 04:00:13.373, True, 1.327, 0.132219
2023/07/02 04:00:13.878, True, 0.993, 0.132448
2023/07/02 04:00:14.374, True, 1.011, 0.134203
2023/07/02 04:00:14.878, True, 0.995, 0.133745
2023/07/02 04:00:15.381, True, 0.995, 0.134203
2023/07/02 04:00:15.878, True, 1.011, 0.132296
2023/07/02 04:00:16.381, True, 0.996, 0.133516
2023/07/02 04:00:16.886, True, 1.325, 0.131151
2023/07/02 04:00:17.382, True, 1.011, 0.133745
2023/07/02 04:00:17.885, True, 0.996, 0.131914
2023/07/02 04:00:18.390, True, 0.993, 0.132296
2023/07/02 04:00:18.886, True, 1.011, 0.131228
2023/07/02 04:00:19.389, True, 0.996, 0.132143
2023/07/02 04:00:19.893, True, 1.327, 0.131609
2023/07/02 04:00:20.390, True, 1.010, 0.130694
2023/07/02 04:00:20.894, True, 0.994, 0.134585
2023/07/02 04:00:21.398, True, 0.994, 0.130922
2023/07/02 04:00:21.894, True, 1.011, 0.132677
2023/07/02 04:00:22.398, True, 1.326, 0.132372
2023/07/02 04:00:22.893, True, 1.013, 0.131914
2023/07/02 04:00:23.398, True, 0.994, 0.133822
2023/07/02 04:00:23.902, True, 0.994, 0.132143
2023/07/02 04:00:24.398, True, 0.674, 0.135424
2023/07/02 04:00:24.901, True, 1.327, 0.134127
2023/07/02 04:00:25.405, True, 0.996, 0.136416
2023/07/02 04:00:25.910, True, 0.662, 0.131304
2023/07/02 04:00:26.405, True, 1.012, 0.131914
2023/07/02 04:00:26.909, True, 0.995, 0.132067
2023/07/02 04:00:27.414, True, 0.993, 0.133059
2023/07/02 04:00:27.909, True, 1.011, 0.133211
2023/07/02 04:00:28.413, True, 0.995, 0.130846
2023/07/02 04:00:28.918, True, 0.996, 0.130159
2023/07/02 04:00:29.413, True, 1.009, 0.133516
2023/07/02 04:00:29.918, True, 0.994, 0.132601
2023/07/02 04:00:30.421, True, 0.996, 0.131762
2023/07/02 04:00:30.918, True, 1.010, 0.132143
2023/07/02 04:00:31.421, True, 0.996, 0.133288
2023/07/02 04:00:31.926, True, 1.325, 0.134279
2023/07/02 04:00:32.422, True, 1.011, 0.133974
2023/07/02 04:00:32.925, True, 0.995, 0.134585
2023/07/02 04:00:33.429, True, 0.995, 0.131991
2023/07/02 04:00:33.926, True, 1.012, 0.132906
2023/07/02 04:00:34.430, True, 0.994, 0.132525
2023/07/02 04:00:34.934, True, 0.994, 0.131991
2023/07/02 04:00:35.430, True, 1.011, 0.131838
2023/07/02 04:00:35.933, True, 0.995, 0.133593
2023/07/02 04:00:36.438, True, 0.994, 0.131991
2023/07/02 04:00:36.941, True, 0.995, 0.133288
2023/07/02 04:00:37.437, True, 1.012, 0.131838
2023/07/02 04:00:37.942, True, 0.994, 0.133364
2023/07/02 04:00:38.446, True, 0.995, 0.133822
2023/07/02 04:00:38.942, True, 1.011, 0.133364
2023/07/02 04:00:39.446, True, 0.995, 0.131151
2023/07/02 04:00:39.950, True, 0.664, 0.133745
2023/07/02 04:00:40.445, True, 1.010, 0.132906
2023/07/02 04:00:40.950, True, 1.327, 0.132525
2023/07/02 04:00:41.454, True, 0.994, 0.130541
2023/07/02 04:00:41.949, True, 1.011, 0.132448
2023/07/02 04:00:42.453, True, 0.995, 0.132525
2023/07/02 04:00:42.957, True, 0.995, 0.133974
2023/07/02 04:00:43.453, True, 1.012, 0.132067
2023/07/02 04:00:43.958, True, 1.326, 0.135729
2023/07/02 04:00:44.462, True, 0.994, 0.132525
2023/07/02 04:00:44.966, True, 0.995, 0.131456
2023/07/02 04:00:45.462, True, 1.012, 0.132067
2023/07/02 04:00:45.965, True, 0.994, 0.132830
2023/07/02 04:00:46.469, True, 0.994, 0.131838
2023/07/02 04:00:46.966, True, 1.012, 0.133669
2023/07/02 04:00:47.469, True, 1.326, 0.130236
2023/07/02 04:00:47.966, True, 1.010, 0.133288
2023/07/02 04:00:48.470, True, 0.996, 0.132143
2023/07/02 04:00:48.973, True, 0.994, 0.132372
2023/07/02 04:00:49.477, True, 0.995, 0.133059
2023/07/02 04:00:49.974, True, 1.011, 0.133745
2023/07/02 04:00:50.477, True, 1.325, 0.132219
2023/07/02 04:00:50.981, True, 0.996, 0.132982
2023/07/02 04:00:51.478, True, 1.009, 0.133593
2023/07/02 04:00:51.982, True, 0.995, 0.131609
2023/07/02 04:00:52.485, True, 0.995, 0.131914
2023/07/02 04:00:52.981, True, 1.346, 0.133745
2023/07/02 04:00:53.486, True, 0.995, 0.132601
2023/07/02 04:00:53.990, True, 0.997, 0.132372
2023/07/02 04:00:54.486, True, 1.010, 0.131991
2023/07/02 04:00:54.990, True, 0.994, 0.134127
2023/07/02 04:00:55.485, True, 1.012, 0.131380
2023/07/02 04:00:55.989, True, 0.994, 0.133745
2023/07/02 04:00:56.494, True, 0.995, 0.134127
2023/07/02 04:00:56.998, True, 1.326, 0.133974
2023/07/02 04:00:57.493, True, 1.011, 0.132830
2023/07/02 04:00:57.998, True, 0.994, 0.133440
2023/07/02 04:00:58.502, True, 0.996, 0.134813
2023/07/02 04:00:58.997, True, 1.010, 0.133593
2023/07/02 04:00:59.502, True, 1.328, 0.135348
2023/07/02 04:01:00.006, True, 0.993, 0.132753
2023/07/02 04:01:00.510, True, 0.996, 0.132906
2023/07/02 04:01:01.006, True, 1.011, 0.133288
2023/07/02 04:01:01.509, True, 0.994, 0.134051
2023/07/02 04:01:02.013, True, 1.328, 0.133974
2023/07/02 04:01:02.509, True, 1.010, 0.134432
2023/07/02 04:01:03.014, True, 0.995, 0.134432
2023/07/02 04:01:03.517, True, 0.995, 0.136034
2023/07/02 04:01:04.013, True, 1.348, 0.134737
2023/07/02 04:01:04.517, True, 0.995, 0.135805
2023/07/02 04:01:05.014, True, 1.009, 0.135576
2023/07/02 04:01:05.517, True, 0.995, 0.134661
2023/07/02 04:01:06.022, True, 0.995, 0.134585
2023/07/02 04:01:06.517, True, 1.011, 0.135882
2023/07/02 04:01:07.022, True, 0.994, 0.136492
2023/07/02 04:01:07.525, True, 0.995, 0.134432
2023/07/02 04:01:08.029, True, 0.996, 0.135653
2023/07/02 04:01:08.526, True, 1.010, 0.137255
2023/07/02 04:01:09.029, True, 0.995, 0.135805
2023/07/02 04:01:09.533, True, 0.995, 0.135500
2023/07/02 04:01:10.030, True, 1.349, 0.134127
2023/07/02 04:01:10.534, True, 0.993, 0.137865
2023/07/02 04:01:11.038, True, 0.995, 0.135576
2023/07/02 04:01:11.533, True, 1.011, 0.138170
2023/07/02 04:01:12.038, True, 0.995, 0.135424
2023/07/02 04:01:12.542, True, 0.996, 0.137636
2023/07/02 04:01:13.038, True, 1.010, 0.135500
2023/07/02 04:01:13.541, True, 0.995, 0.135805
2023/07/02 04:01:14.045, True, 1.326, 0.136110
2023/07/02 04:01:14.541, True, 1.012, 0.137026
2023/07/02 04:01:15.046, True, 0.995, 0.135958
2023/07/02 04:01:15.549, True, 0.995, 0.135271
2023/07/02 04:01:16.046, True, 1.010, 0.139010
2023/07/02 04:01:16.550, True, 0.995, 0.138323
2023/07/02 04:01:17.053, True, 0.994, 0.137560
2023/07/02 04:01:17.557, True, 0.995, 0.134661
2023/07/02 04:01:18.053, True, 1.349, 0.137636
2023/07/02 04:01:18.558, True, 0.994, 0.136110
2023/07/02 04:01:19.054, True, 1.011, 0.138705
2023/07/02 04:01:19.557, True, 0.995, 0.137179
2023/07/02 04:01:20.061, True, 0.996, 0.136645
2023/07/02 04:01:20.558, True, 1.011, 0.136263
2023/07/02 04:01:21.061, True, 0.995, 0.136034
2023/07/02 04:01:21.566, True, 1.324, 0.137179
2023/07/02 04:01:22.062, True, 1.011, 0.136492
2023/07/02 04:01:22.565, True, 0.994, 0.136187
2023/07/02 04:01:23.070, True, 0.995, 0.135729
2023/07/02 04:01:23.574, True, 0.996, 0.135882
2023/07/02 04:01:24.070, True, 1.010, 0.137026
2023/07/02 04:01:24.574, True, 0.994, 0.135271
2023/07/02 04:01:25.078, True, 1.327, 0.138705
2023/07/02 04:01:25.573, True, 1.010, 0.138247
2023/07/02 04:01:26.078, True, 0.996, 0.138399
2023/07/02 04:01:26.582, True, 0.994, 0.138018
2023/07/02 04:01:27.077, True, 1.347, 0.136187
2023/07/02 04:01:27.581, True, 0.995, 0.138705
2023/07/02 04:01:28.085, True, 0.994, 0.139315
2023/07/02 04:01:28.582, True, 1.010, 0.138247
2023/07/02 04:01:29.085, True, 0.996, 0.137179
2023/07/02 04:01:29.589, True, 0.994, 0.138628
2023/07/02 04:01:30.094, True, 1.328, 0.137407
2023/07/02 04:01:30.589, True, 1.009, 0.137255
2023/07/02 04:01:31.093, True, 0.995, 0.136187
2023/07/02 04:01:31.598, True, 0.995, 0.139620
2023/07/02 04:01:32.093, True, 1.010, 0.138399
2023/07/02 04:01:32.598, True, 0.995, 0.136339
2023/07/02 04:01:33.102, True, 0.996, 0.138781
2023/07/02 04:01:33.597, True, 1.011, 0.135805
2023/07/02 04:01:34.101, True, 0.993, 0.139391
2023/07/02 04:01:34.606, True, 1.329, 0.137484
2023/07/02 04:01:35.110, True, 0.995, 0.139162
2023/07/02 04:01:35.605, True, 1.010, 0.138094
2023/07/02 04:01:36.110, True, 0.994, 0.136339
2023/07/02 04:01:36.613, True, 0.996, 0.138399
2023/07/02 04:01:37.110, True, 1.009, 0.140002
2023/07/02 04:01:37.614, True, 0.995, 0.139467
2023/07/02 04:01:38.118, True, 0.996, 0.139696
2023/07/02 04:01:38.613, True, 1.010, 0.139086
2023/07/02 04:01:39.117, True, 0.996, 0.138247
2023/07/02 04:01:39.622, True, 0.994, 0.139010
2023/07/02 04:01:40.118, True, 1.347, 0.140078
2023/07/02 04:01:40.622, True, 0.996, 0.138628
2023/07/02 04:01:41.125, True, 0.995, 0.137255
2023/07/02 04:01:41.622, True, 1.010, 0.138628
2023/07/02 04:01:42.126, True, 0.995, 0.138857
2023/07/02 04:01:42.630, True, 0.994, 0.138323
2023/07/02 04:01:43.133, True, 0.996, 0.139925
2023/07/02 04:01:43.629, True, 1.012, 0.135195
2023/07/02 04:01:44.134, True, 0.993, 0.138552
2023/07/02 04:01:44.637, True, 0.996, 0.137713
2023/07/02 04:01:45.134, True, 1.346, 0.135119
2023/07/02 04:01:45.637, True, 0.996, 0.138476
2023/07/02 04:01:46.142, True, 0.996, 0.137179
2023/07/02 04:01:46.645, True, 0.993, 0.137407
2023/07/02 04:01:47.142, True, 1.011, 0.140536
2023/07/02 04:01:47.645, True, 0.996, 0.136873
2023/07/02 04:01:48.150, True, 0.994, 0.137713
2023/07/02 04:01:48.645, True, 1.011, 0.138399
2023/07/02 04:01:49.150, True, 0.995, 0.139696
2023/07/02 04:01:49.653, True, 1.328, 0.138247
2023/07/02 04:01:50.149, True, 1.010, 0.139239
2023/07/02 04:01:50.653, True, 0.996, 0.140154
2023/07/02 04:01:51.157, True, 0.994, 0.139467
2023/07/02 04:01:51.664, True, 1.010, 0.139696
2023/07/02 04:01:52.158, True, 0.995, 0.138476
2023/07/02 04:01:52.662, True, 0.995, 0.138857
2023/07/02 04:01:53.158, True, 1.347, 0.139239
2023/07/02 04:01:53.661, True, 0.996, 0.140688
2023/07/02 04:01:54.166, True, 0.993, 0.140078
2023/07/02 04:01:54.669, True, 1.326, 0.140307
2023/07/02 04:01:55.165, True, 1.013, 0.137026
2023/07/02 04:01:55.669, True, 0.993, 0.139773
2023/07/02 04:01:56.166, True, 1.013, 0.138323
2023/07/02 04:01:56.670, True, 0.994, 0.137713
2023/07/02 04:01:57.174, True, 0.994, 0.139315
2023/07/02 04:01:57.678, True, 0.995, 0.138628
2023/07/02 04:01:58.173, True, 1.012, 0.138476
2023/07/02 04:01:58.678, True, 0.995, 0.138323
2023/07/02 04:01:59.182, True, 0.995, 0.140993
2023/07/02 04:01:59.677, True, 1.010, 0.137865
2023/07/02 04:02:00.181, True, 0.995, 0.139467
2023/07/02 04:02:00.686, True, 0.994, 0.138781
2023/07/02 04:02:01.182, True, 1.011, 0.139544
2023/07/02 04:02:01.686, True, 1.326, 0.139544
2023/07/02 04:02:02.189, True, 0.995, 0.141146
2023/07/02 04:02:02.686, True, 1.012, 0.139620
2023/07/02 04:02:03.189, True, 0.994, 0.140002
2023/07/02 04:02:03.694, True, 0.995, 0.140383
2023/07/02 04:02:04.190, True, 1.011, 0.137407
2023/07/02 04:02:04.694, True, 1.324, 0.137331
2023/07/02 04:02:05.198, True, 0.995, 0.139391
2023/07/02 04:02:05.701, True, 0.995, 0.139467
2023/07/02 04:02:06.198, True, 1.011, 0.139620
2023/07/02 04:02:06.702, True, 0.994, 0.137789
2023/07/02 04:02:07.206, True, 0.995, 0.139925
2023/07/02 04:02:07.701, True, 1.012, 0.139544
2023/07/02 04:02:08.205, True, 1.327, 0.136568
2023/07/02 04:02:08.709, True, 0.994, 0.139315
2023/07/02 04:02:09.205, True, 1.010, 0.139467
2023/07/02 04:02:09.709, True, 0.995, 0.139620
2023/07/02 04:02:10.213, True, 0.996, 0.139773
2023/07/02 04:02:10.710, True, 1.012, 0.138705
2023/07/02 04:02:11.213, True, 0.994, 0.138781
2023/07/02 04:02:11.717, True, 0.995, 0.139086
2023/07/02 04:02:12.213, True, 1.010, 0.139315
2023/07/02 04:02:12.718, True, 0.995, 0.140154
2023/07/02 04:02:13.222, True, 1.326, 0.139162
2023/07/02 04:02:13.726, True, 0.996, 0.139849
2023/07/02 04:02:14.221, True, 1.009, 0.139162
2023/07/02 04:02:14.725, True, 0.995, 0.138476
2023/07/02 04:02:15.230, True, 1.328, 0.140078
2023/07/02 04:02:15.725, True, 1.010, 0.141756
2023/07/02 04:02:16.229, True, 0.995, 0.138552
2023/07/02 04:02:16.733, True, 0.996, 0.138170
2023/07/02 04:02:17.230, True, 1.010, 0.139925
2023/07/02 04:02:17.733, True, 0.995, 0.141146
2023/07/02 04:02:18.237, True, 0.995, 0.138933
2023/07/02 04:02:18.734, True, 1.010, 0.138628
2023/07/02 04:02:19.238, True, 0.996, 0.137331
2023/07/02 04:02:19.742, True, 1.326, 0.141375
2023/07/02 04:02:20.238, True, 1.011, 0.140536
2023/07/02 04:02:20.742, True, 0.994, 0.139773
2023/07/02 04:02:21.245, True, 0.996, 0.138552
2023/07/02 04:02:21.750, True, 0.994, 0.137407
2023/07/02 04:02:22.246, True, 1.011, 0.141375
2023/07/02 04:02:22.750, True, 0.995, 0.140612
2023/07/02 04:02:23.245, True, 1.010, 0.139620
2023/07/02 04:02:23.750, True, 0.995, 0.140307
2023/07/02 04:02:24.254, True, 0.995, 0.139391
2023/07/02 04:02:24.758, True, 0.995, 0.138552
2023/07/02 04:02:25.253, True, 1.010, 0.138476
2023/07/02 04:02:25.757, True, 0.996, 0.140764
2023/07/02 04:02:26.253, True, 1.011, 0.136110
2023/07/02 04:02:26.758, True, 0.994, 0.140078
2023/07/02 04:02:27.262, True, 0.995, 0.138628
2023/07/02 04:02:27.758, True, 1.012, 0.139010
2023/07/02 04:02:28.261, True, 0.993, 0.140536
2023/07/02 04:02:28.766, True, 1.329, 0.136645
2023/07/02 04:02:29.270, True, 0.994, 0.136950
2023/07/02 04:02:29.766, True, 1.009, 0.140002
2023/07/02 04:02:30.269, True, 0.995, 0.136721
2023/07/02 04:02:30.774, True, 0.995, 0.140307
2023/07/02 04:02:31.270, True, 1.348, 0.138552
2023/07/02 04:02:31.774, True, 0.997, 0.138247
2023/07/02 04:02:32.278, True, 0.993, 0.140459
2023/07/02 04:02:32.774, True, 1.011, 0.138247
2023/07/02 04:02:33.278, True, 0.995, 0.137865
2023/07/02 04:02:33.781, True, 0.994, 0.137713
2023/07/02 04:02:34.278, True, 1.011, 0.140536
2023/07/02 04:02:34.782, True, 0.995, 0.138705
2023/07/02 04:02:35.286, True, 0.995, 0.140230
2023/07/02 04:02:35.781, True, 1.012, 0.140002
2023/07/02 04:02:36.286, True, 0.994, 0.139239
2023/07/02 04:02:36.790, True, 0.994, 0.138781
2023/07/02 04:02:37.294, True, 0.995, 0.140154
2023/07/02 04:02:37.790, True, 1.348, 0.139620
2023/07/02 04:02:38.294, True, 0.994, 0.139467
2023/07/02 04:02:38.797, True, 0.996, 0.137789
2023/07/02 04:02:39.294, True, 1.011, 0.137102
2023/07/02 04:02:39.797, True, 0.994, 0.139925
2023/07/02 04:02:40.302, True, 1.326, 0.139849
2023/07/02 04:02:40.797, True, 1.011, 0.139925
2023/07/02 04:02:41.301, True, 0.995, 0.137865
2023/07/02 04:02:41.805, True, 0.994, 0.140688
2023/07/02 04:02:42.301, True, 1.010, 0.137102
2023/07/02 04:02:42.805, True, 1.326, 0.138018
2023/07/02 04:02:43.309, True, 0.996, 0.138399
2023/07/02 04:02:43.806, True, 1.012, 0.138857
2023/07/02 04:02:44.310, True, 0.994, 0.138857
2023/07/02 04:02:44.813, True, 1.326, 0.138323
2023/07/02 04:02:45.309, True, 1.010, 0.139391
2023/07/02 04:02:45.813, True, 0.995, 0.137407
2023/07/02 04:02:46.317, True, 0.995, 0.137026
2023/07/02 04:02:46.814, True, 1.011, 0.138552
2023/07/02 04:02:47.318, True, 0.995, 0.139162
2023/07/02 04:02:47.822, True, 0.994, 0.138170
2023/07/02 04:02:48.326, True, 0.994, 0.137636
2023/07/02 04:02:48.821, True, 1.012, 0.139544
2023/07/02 04:02:49.325, True, 0.994, 0.138247
2023/07/02 04:02:49.830, True, 0.995, 0.138018
2023/07/02 04:02:50.326, True, 1.011, 0.137331
2023/07/02 04:02:50.830, True, 0.994, 0.139773
2023/07/02 04:02:51.334, True, 0.996, 0.140459
2023/07/02 04:02:51.830, True, 1.010, 0.140002
2023/07/02 04:02:52.334, True, 0.996, 0.138399
2023/07/02 04:02:52.838, True, 0.995, 0.138247
2023/07/02 04:02:53.334, True, 1.011, 0.139467
2023/07/02 04:02:53.837, True, 0.996, 0.140536
2023/07/02 04:02:54.342, True, 1.325, 0.138476
2023/07/02 04:02:54.837, True, 1.011, 0.138857
2023/07/02 04:02:55.341, True, 0.995, 0.136110
2023/07/02 04:02:55.846, True, 0.995, 0.138170
2023/07/02 04:02:56.342, True, 1.011, 0.139010
2023/07/02 04:02:56.846, True, 0.994, 0.140536
2023/07/02 04:02:57.342, True, 1.011, 0.139925
2023/07/02 04:02:57.846, True, 0.995, 0.137713
2023/07/02 04:02:58.350, True, 0.995, 0.138933
2023/07/02 04:02:58.846, True, 1.348, 0.139315
2023/07/02 04:02:59.349, True, 0.994, 0.140307
2023/07/02 04:02:59.854, True, 0.996, 0.139010
2023/07/02 04:03:00.358, True, 0.995, 0.139620
2023/07/02 04:03:00.854, True, 1.010, 0.137484
2023/07/02 04:03:01.358, True, 0.994, 0.136950
2023/07/02 04:03:01.862, True, 1.328, 0.139925
2023/07/02 04:03:02.358, True, 0.674, 0.139086
2023/07/02 04:03:02.861, True, 1.326, 0.139391
2023/07/02 04:03:03.366, True, 0.994, 0.137407
2023/07/02 04:03:03.861, True, 1.013, 0.138399
2023/07/02 04:03:04.365, True, 0.993, 0.137865
2023/07/02 04:03:04.870, True, 1.328, 0.138323
2023/07/02 04:03:05.365, True, 1.011, 0.139239
2023/07/02 04:03:05.870, True, 0.994, 0.137713
2023/07/02 04:03:06.374, True, 0.994, 0.139086
2023/07/02 04:03:06.870, True, 1.011, 0.137026
2023/07/02 04:03:07.374, True, 0.995, 0.138781
2023/07/02 04:03:07.870, True, 1.011, 0.136339
2023/07/02 04:03:08.374, True, 0.995, 0.139467
2023/07/02 04:03:08.878, True, 0.995, 0.139239
2023/07/02 04:03:09.381, True, 1.327, 0.137636
2023/07/02 04:03:09.878, True, 1.011, 0.136873
2023/07/02 04:03:10.382, True, 0.994, 0.139162
2023/07/02 04:03:10.886, True, 0.995, 0.141146
2023/07/02 04:03:11.382, True, 1.010, 0.139239
2023/07/02 04:03:11.885, True, 0.994, 0.136492
2023/07/02 04:03:12.389, True, 0.995, 0.135424
2023/07/02 04:03:12.894, True, 1.327, 0.138781
2023/07/02 04:03:13.390, True, 1.012, 0.137407
2023/07/02 04:03:13.893, True, 0.994, 0.140154
2023/07/02 04:03:14.397, True, 0.995, 0.139773
2023/07/02 04:03:14.894, True, 1.011, 0.138857
2023/07/02 04:03:15.398, True, 0.994, 0.139315
2023/07/02 04:03:15.902, True, 0.995, 0.139391
2023/07/02 04:03:16.398, True, 1.013, 0.139086
2023/07/02 04:03:16.902, True, 0.993, 0.139010
2023/07/02 04:03:17.405, True, 1.328, 0.139696
2023/07/02 04:03:17.902, True, 1.011, 0.136873
2023/07/02 04:03:18.405, True, 0.994, 0.136339
2023/07/02 04:03:18.910, True, 0.994, 0.137636
2023/07/02 04:03:19.406, True, 1.011, 0.138247
2023/07/02 04:03:19.910, True, 0.995, 0.139086
2023/07/02 04:03:20.413, True, 0.995, 0.138628
2023/07/02 04:03:20.910, True, 1.011, 0.139849
2023/07/02 04:03:21.414, True, 1.328, 0.139467
2023/07/02 04:03:21.918, True, 0.994, 0.138933
2023/07/02 04:03:22.414, True, 1.011, 0.140002
2023/07/02 04:03:22.917, True, 0.996, 0.137484
2023/07/02 04:03:23.422, True, 0.994, 0.138399
2023/07/02 04:03:23.917, True, 1.011, 0.137255
2023/07/02 04:03:24.422, True, 0.997, 0.136797
2023/07/02 04:03:24.926, True, 0.994, 0.137636
2023/07/02 04:03:25.430, True, 0.993, 0.138552
2023/07/02 04:03:25.926, True, 1.011, 0.141222
2023/07/02 04:03:26.429, True, 0.996, 0.137026
2023/07/02 04:03:26.934, True, 0.993, 0.135805
2023/07/02 04:03:27.430, True, 1.011, 0.137255
2023/07/02 04:03:27.934, True, 0.997, 0.137713
2023/07/02 04:03:28.438, True, 0.994, 0.139467
2023/07/02 04:03:28.934, True, 1.010, 0.139162
2023/07/02 04:03:29.437, True, 0.995, 0.137026
2023/07/02 04:03:29.942, True, 0.995, 0.137331
2023/07/02 04:03:30.438, True, 1.011, 0.137942
2023/07/02 04:03:30.942, True, 0.996, 0.138857
2023/07/02 04:03:31.445, True, 0.993, 0.135653
2023/07/02 04:03:31.949, True, 0.995, 0.137713
2023/07/02 04:03:32.445, True, 1.010, 0.138399
2023/07/02 04:03:32.950, True, 0.995, 0.138170
2023/07/02 04:03:33.454, True, 1.328, 0.136110
2023/07/02 04:03:33.950, True, 1.009, 0.138247
2023/07/02 04:03:34.454, True, 0.996, 0.137636
2023/07/02 04:03:34.957, True, 0.994, 0.136187
2023/07/02 04:03:35.461, True, 0.994, 0.137636
2023/07/02 04:03:35.957, True, 1.012, 0.136645
2023/07/02 04:03:36.461, True, 0.994, 0.136110
2023/07/02 04:03:36.966, True, 1.327, 0.135958
2023/07/02 04:03:37.462, True, 1.011, 0.136568
2023/07/02 04:03:37.966, True, 0.995, 0.137026
2023/07/02 04:03:38.469, True, 0.994, 0.138781
2023/07/02 04:03:38.965, True, 1.012, 0.137713
2023/07/02 04:03:39.470, True, 0.994, 0.137255
2023/07/02 04:03:39.974, True, 0.995, 0.137789
2023/07/02 04:03:40.478, True, 0.996, 0.135195
2023/07/02 04:03:40.974, True, 1.012, 0.139239
2023/07/02 04:03:41.477, True, 1.324, 0.136568
2023/07/02 04:03:41.981, True, 0.995, 0.137255
2023/07/02 04:03:42.478, True, 1.010, 0.135882
2023/07/02 04:03:42.982, True, 0.995, 0.137102
2023/07/02 04:03:43.486, True, 1.328, 0.137713
2023/07/02 04:03:43.990, True, 0.994, 0.139925
2023/07/02 04:03:44.485, True, 1.010, 0.138247
2023/07/02 04:03:44.989, True, 0.995, 0.137179
2023/07/02 04:03:45.493, True, 0.993, 0.138247
2023/07/02 04:03:45.990, True, 1.011, 0.137484
2023/07/02 04:03:46.494, True, 0.994, 0.136797
2023/07/02 04:03:46.998, True, 0.995, 0.137636
2023/07/02 04:03:47.494, True, 1.011, 0.137026
2023/07/02 04:03:47.997, True, 1.328, 0.136568
2023/07/02 04:03:48.502, True, 0.993, 0.137942
2023/07/02 04:03:48.998, True, 0.675, 0.135882
2023/07/02 04:03:49.502, True, 0.993, 0.137560
2023/07/02 04:03:50.005, True, 0.996, 0.136034
2023/07/02 04:03:50.501, True, 1.009, 0.136568
2023/07/02 04:03:51.006, True, 0.995, 0.138552
2023/07/02 04:03:51.510, True, 0.997, 0.138933
2023/07/02 04:03:52.014, True, 1.325, 0.136416
2023/07/02 04:03:52.509, True, 1.012, 0.135042
2023/07/02 04:03:53.013, True, 0.993, 0.138094
2023/07/02 04:03:53.518, True, 0.996, 0.136416
2023/07/02 04:03:54.014, True, 1.010, 0.137789
2023/07/02 04:03:54.518, True, 0.995, 0.135958
2023/07/02 04:03:55.013, True, 1.012, 0.138170
2023/07/02 04:03:55.518, True, 1.326, 0.138933
2023/07/02 04:03:56.022, True, 0.994, 0.136950
2023/07/02 04:03:56.518, True, 1.013, 0.136263
2023/07/02 04:03:57.021, True, 0.993, 0.138247
2023/07/02 04:03:57.525, True, 0.995, 0.136797
2023/07/02 04:03:58.022, True, 1.011, 0.135424
2023/07/02 04:03:58.526, True, 0.995, 0.135958
2023/07/02 04:03:59.030, True, 0.996, 0.139010
2023/07/02 04:03:59.526, True, 1.011, 0.137942
2023/07/02 04:04:00.030, True, 0.995, 0.138399
2023/07/02 04:04:00.534, True, 0.993, 0.138094
2023/07/02 04:04:01.038, True, 0.996, 0.137179
2023/07/02 04:04:01.533, True, 1.010, 0.135271
2023/07/02 04:04:02.038, True, 0.994, 0.136721
2023/07/02 04:04:02.541, True, 0.995, 0.136645
2023/07/02 04:04:03.038, True, 1.012, 0.136416
2023/07/02 04:04:03.542, True, 0.994, 0.136187
2023/07/02 04:04:04.046, True, 0.996, 0.137331
2023/07/02 04:04:04.541, True, 1.011, 0.137484
2023/07/02 04:04:05.046, True, 0.993, 0.136645
2023/07/02 04:04:05.550, True, 0.995, 0.138933
2023/07/02 04:04:06.046, True, 1.012, 0.136950
2023/07/02 04:04:06.550, True, 1.325, 0.136721
2023/07/02 04:04:07.054, True, 0.995, 0.136950
2023/07/02 04:04:07.557, True, 0.994, 0.135653
2023/07/02 04:04:08.054, True, 1.012, 0.136873
2023/07/02 04:04:08.558, True, 0.994, 0.136568
2023/07/02 04:04:09.062, True, 0.994, 0.137789
2023/07/02 04:04:09.557, True, 0.674, 0.135653
2023/07/02 04:04:10.062, True, 1.326, 0.136873
2023/07/02 04:04:10.565, True, 0.996, 0.137942